STARLINK-31853, 59933

Orbit data source: Space-Track

STARLINK-31853, 59933 is a payload satellite owned by SpaceX/Seattle (US) in LEO that was launched on Sat, 01 Jun 2024 UTC via an FALCON 9 launch vehicle from the Air Force Eastern Test Range (AFETR). Payload-class satellites include a variety of spacecraft equipped with specific instruments for various scientific and technological missions. These include communications satellites like Starlink; space stations such as the ISS; scientific satellites like the Hubble; Earth observation satellites from companies like Planet Labs, Umbra, and HawkEye 360; GPS; miniature CubeSats for education and research; and military/defense satellites.

Loading next visibility...
Identifier
59933, 2024-106M
Orbit
LEO
Country
Flag of USUS
Related business
Manufacturer
SpaceX/Seattle
Mission
Operational Commercial Communications
Bus & Motor
STARLINK V2M, Unknown motor
Mass
730 kg wet, ~700 kg dry
Launch date (UTC)
2024-06-01 (1 year ago)
Launch vehicle
FALCON 9
Launch site
Air Force Eastern Test Range (AFETR)
Object type
Payload
Rocket body
Debris
Shape & HBR
Box + 2 Pan, 17.7 m
Radar Cross Section
33.884 m², Large (>1 m²)

Expand to show TLE details & history
Last TLE update: 11 hours ago

TLE from 11 hours ago
0 STARLINK-31853
1 59933U 24106M   25288.79998439  .00003722  00000-0  14466-3 0  9993
2 59933  43.0040  70.7925 0001501 280.1759  79.8924 15.27590746 78360
Epoch: 2025-10-15T19:11Z
TLE epoch observation values (Epoch: 2025-10-15T19:11:58.651Z)
Latitude
0.00003°
Longitude
118.22929°
Altitude
482.612 km
Speed
7.626 km/s
True Right ascension
04h 43m 10s
True Declination
0° 00' 00"
Sunlit
Object was in full shadow at epoch
Visualization orbit readout
Latitude
Unknown
Longitude
Unknown
Altitude
Unknown
Speed
Unknown
Apparent Right ascension
Unknown
Apparent Declination
Unknown
Sunlit
N/A
Visualization observer readout
Local Sidereal Time
00:52:39
Azimuth
Unknown
Elevation
Unknown
Doppler factor
Unknown
Orbital elements
Apogee altitude
485.992 km
Perigee altitude
483.931 km
Semi-major axis
6,863.098 km
Eccentricity
0.00015
Inclination
43.004°
RAAN
70.7925°
Arg. of periapsis
280.1759°
True anomaly
79.90933°
Mean anomaly
79.8924°
Eccentric anomaly
79.90087°
Mean motion
3.81736 °/min
Orbital period
94.31 mins
BSTAR
0.00014466
Loading maneuver chart data...
Computing Atmospheric mass density...
Loading historical data...
Loading historical data...
Loading historical data...
Loading historical data...
Loading historical data...
Loading historical data...
Loading historical data...

Documentation

Showing up to 5 results
|